Location: Bukit Lungun
(2.6833°N, 113.9667°E)
Time: 14:55:09
(UTC+00:00)

COSMO-SKYMED 1 - Pass Details

Date: 02 March 2021
Orbit: 621 x 623 km, 97.9° (Epoch: 14 April)

Event Time Altitude Azimuth Distance (km) Brightness Sun altitude
Rises 21:42:13 0° 157° (SSE) 2,898 6.4 -13.7°
Reaches altitude 10° 21:44:29 10° 151° (SSE) 1,990 5.7 -13.1°
Maximum altitude 21:48:37 45° 78° (ENE) 846 3.8 -12.1°
Drops below altitude 10° 21:52:45 10° 5° (N) 1,984 5.2 -11.1°
Sets 21:54:59 0° 359° (N) 2,888 5.9 -10.5°
